User: anonymous   Login
Location: Sewell
(39.7660°N, 75.1450°W)
Time: 07:14:48
(UTC-05:00)
Language:

ISS - Orbit

View from above orbital plane
View from above orbital plane
View from above satellite
View from above satellite

Ground track
Ground track

The orbit data is extracted from the following two-line orbital elements,

1 25544U 98067A   15025.25411475  .00005520  00000-0  92246-4 0  7764
2 25544 051.6473 077.6882 0005549 303.0883 171.2046 15.53608874925794
Epoch (UTC): 25 January 2015 06:05:55
Eccentricity: 0.0005549
inclination: 51.6473°
perigee height: 402 km
apogee height: 410 km
right ascension of ascending node: 77.6882°
argument of perigee: 303.0883°
revolutions per day: 15.53608874
mean anomaly at epoch: 171.2046°
orbit number at epoch: 92579

The dashed part of the orbit path shows where the satellite is in the earth's shadow,  

DLR